User: anonymous   Login
Location: Unspecified
(0.0000°N, 0.0000°E)
Time: 02:36:21
(UTC+00:00)
Language:

ISIS 1 - Orbit

View from above orbital plane
View from above orbital plane
View from above satellite
View from above satellite

Ground track
Ground track

The orbit data is extracted from the following two-line orbital elements,

1 03669U 69009A   24106.38491792  .00000205  00000-0  13347-3 0  9992
2 03669  88.4355 231.1085 1710055  48.4355 325.1158 11.29895897270213
Epoch (UTC): 15 April 2024 09:14:16
Eccentricity: 0.1710055
inclination: 88.4355°
perigee height: 576 km
apogee height: 3445 km
right ascension of ascending node: 231.1085°
argument of perigee: 48.4355°
revolutions per day: 11.29895897
mean anomaly at epoch: 325.1158°
orbit number at epoch: 27021

The dashed part of the orbit path shows where the satellite is in the earth's shadow,  

DLR